Flag for France Weather past 2 weeks in Perpignan, France

Now
75 °F

Broken clouds.


Feels Like: 77 °F
Forecast: 67 / 83 °F
Wind: 6 mph from Northeast

Location: Perpignan Airport

Current Time: Oct 20, 2014 at 3:49:34 PM

Latest Report: Oct 20, 2014 at 3:00 PM


Visibility: N/A

Pressure: 30.12 "Hg

Humidity: 74%

Dew point: 66 °F

Location of PerpignanLocation

Historic Weather in Perpignan — Graph

°F

Perpignan temperature yesterday

Maximum temperature yesterday: 77 °F (at 1:30 PM)
Minimum temperature yesterday: 63 °F (at 6:30 AM)
Average temperature yesterday: 68 °F

Past Weeks' High & Low Weather Summary

 TemperatureHumidityPressure
High82 °F (Oct 9, 2:30 PM)100% (Oct 8, 1:00 AM)30.27 "Hg (Oct 8, 1:00 AM)
Low55 °F (Oct 6, 6:00 AM)39% (Oct 12, 4:30 PM)29.62 "Hg (Oct 12, 5:00 PM)
Average67 °F77%29.90 "Hg
* Reported Oct 5 2:00 PM — Oct 20 2:30 PM, Perpignan, Weather by CustomWeather, © 2014

Note: Actual official high and low records may vary slightly from our data, if they occured in-between our weather recording intervals... More about our weather records

Advertising

Perpignan weather history for previous 24 hours

 ConditionsComfort  
Time TempWeatherWind HumidityBarometerVisibility
2:30 PM
Oct 20
77 °FBroken clouds.5 mph65%30.12 "HgN/A
2:00 PM75 °FBroken clouds.5 mph69%30.15 "HgN/A
1:30 PM77 °FPartly sunny.3 mph65%30.15 "HgN/A
1:00 PM77 °FBroken clouds.2 mph65%30.18 "HgN/A
12:30 PM73 °FBroken clouds.2 mph74%30.18 "HgN/A
12:00 PM73 °FBroken clouds.No wind74%30.18 "HgN/A
11:30 AM72 °FBroken clouds.2 mph78%30.18 "HgN/A
11:00 AM70 °FPartly sunny.2 mph83%30.18 "HgN/A
10:30 AM70 °FScattered clouds.1 mph88%30.18 "HgN/A
10:00 AM68 °FScattered clouds.3 mph88%30.18 "HgN/A
9:30 AM64 °FScattered clouds.3 mph100%30.18 "HgN/A
9:00 AM64 °FPassing clouds.3 mph94%30.18 "HgN/A
8:30 AM63 °FPartly cloudy.3 mph100%30.18 "HgN/A
8:00 AM63 °FPassing clouds.5 mph100%30.18 "HgN/A
7:30 AM64 °FPassing clouds.3 mph94%30.18 "HgN/A
7:00 AM64 °FPassing clouds.5 mph100%30.18 "HgN/A
5:00 AM66 °FMostly cloudy.No wind100%30.18 "Hg5 mi
4:30 AM66 °FOvercast.2 mph100%30.18 "Hg6 mi
4:00 AM66 °FOvercast.3 mph100%30.18 "Hg5 mi
3:30 AM64 °FMostly cloudy.1 mph100%30.21 "Hg4 mi
3:00 AM64 °FOvercast.1 mph94%30.21 "Hg4 mi
2:30 AM64 °FFog.2 mph94%30.21 "Hg3 mi
2:00 AM63 °FFog.2 mph94%30.21 "Hg3 mi
1:30 AM63 °FPassing clouds.1 mph100%30.21 "Hg5 mi
1:00 AM63 °FPassing clouds.1 mph94%30.21 "Hg5 mi
12:30 AM63 °FClear.2 mph94%30.21 "Hg4 mi
12:00 AM63 °FPassing clouds.1 mph100%30.24 "Hg4 mi
11:30 PM
Oct 19
64 °FClear.No wind94%30.24 "Hg4 mi
11:00 PM66 °FClear.3 mph94%30.24 "Hg6 mi
10:30 PM64 °FClear.2 mph94%30.24 "HgN/A
10:00 PM64 °FPassing clouds.5 mph94%30.24 "HgN/A
9:30 PM64 °FClear.3 mph94%30.24 "Hg6 mi
9:00 PM66 °FClear.3 mph88%30.24 "HgN/A
8:30 PM66 °FClear.2 mph88%30.24 "HgN/A
8:00 PM68 °FClear.No wind94%30.24 "HgN/A
7:30 PM70 °FClear.2 mph88%30.24 "HgN/A
7:00 PM70 °FScattered clouds.3 mph88%30.24 "HgN/A
6:30 PM72 °FScattered clouds.5 mph83%30.21 "HgN/A
6:00 PM72 °FPassing clouds.5 mph78%30.24 "HgN/A
5:30 PM73 °FPassing clouds.8 mph74%30.21 "HgN/A
5:08 PM73 °FPassing clouds.7 mph78%30.21 "HgN/A
4:30 PM75 °FPassing clouds.8 mph74%30.24 "HgN/A
4:00 PM75 °FPassing clouds.8 mph69%30.24 "HgN/A
3:00 PM75 °FPassing clouds.9 mph74%30.24 "HgN/A
Weather by CustomWeather, © 2014

See weather overviewHow to use our weather pages